User: anonymous   Login
Location: El Bakhil
(32.7726°N, 5.5387°W)
Time: 01:30:44
(UTC+00:00)
Language:

XW-2A - Orbit

View from above orbital plane
View from above orbital plane
View from above satellite
View from above satellite

Ground track
Ground track

The orbit data is extracted from the following two-line orbital elements,

1 40903U 15049E   22343.52595943  .00047562  00000-0  50644-3 0  9997
2 40903  97.1549  43.1123 0007473 177.6038 289.6426 15.63831513406519
Epoch (UTC): 09 December 2022 12:37:22
Eccentricity: 0.0007473
inclination: 97.1549°
perigee height: 371 km
apogee height: 381 km
right ascension of ascending node: 43.1123°
argument of perigee: 177.6038°
revolutions per day: 15.63831513
mean anomaly at epoch: 289.6426°
orbit number at epoch: 40651

The dashed part of the orbit path shows where the satellite is in the earth's shadow,  

DLR